"Pseudo-MPEC" for ST26G96

Created 2026 Jul 24 22:35:18 UT using Find_Orb

Click here for an explanation of pseudo-MPECs

 
 Astrometry: 
     ST26G96* C2026 07 24.25067318 27 36.196+30 49 55.74   ~7O6o 18.70GVNEOCPU68
     ST26G96  C2026 07 24.25401418 27 26.372+30 55 57.12   ~7O6o 18.70GVNEOCPU68
     ST26G96  C2026 07 24.26548418 26 51.980+31 16 48.51   ~7O6o 18.51GVNEOCPU74
     ST26G96  C2026 07 24.26702118 26 47.281+31 19 38.27   ~7O6o 18.51GVNEOCPU74
     ST26G96  C2026 07 24.29480818 25 20.980+32 11 10.86   ~7O7K 18.68GVNEOCPU74
     ST26G96  C2026 07 24.29808218 25 10.464+32 17 23.22   ~7O7Z 18.68GVNEOCPU74
     ST26G96 1C2026 07 24.36657218 21 51.094+34 36 47.37   ~7OHZ 19.39GVNEOCPT12
     ST26G96 1C2026 07 24.36684218 21 50.098+34 37 20.46   ~7OHZ 19.25GVNEOCPT12
     ST26G96 1C2026 07 24.36711218 21 49.101+34 37 53.65   ~7OHZ 19.24GVNEOCPT12
     ST26G96 KB2026 07 24.68730017 55 33.636+47 26 47.58   ~7OHZ 19.0 GXNEOCPQ06
     ST26G96 KB2026 07 24.69129717 55 04.878+47 37 47.79   ~7OHZ 18.7 GXNEOCPQ06
     ST26G96 KB2026 07 24.69529417 54 35.609+47 48 51.75   ~7OHZ 18.6 GXNEOCPQ06
     ST26G96 0C2026 07 24.92057717 17 54.569+59 13 38.35   ~7OMZ 19.8 GWNEOCPJ95
     ST26G96 0C2026 07 24.92463917 16 53.263+59 26 27.85   ~7OMZ 19.8 GWNEOCPJ95
     ST26G96 0C2026 07 24.92871617 15 50.875+59 39 19.15   ~7OMZ 18.9 GWNEOCPJ95
     ST26G96 0C2026 07 24.93316217 14 41.645+59 53 19.82   ~7OMZ 19.2 GWNEOCPJ95

Station data:
(J95) Great Shefford  (N51.474969 W1.447003)  UK/England.  Observer P.
   Birtwhistle. 0.41-m f/6.3 Schmidt-Cassegrain + CCD.
(Q06) Tarui Observatory, Tarui  (N35.394791 E136.495470)  Japan.  Observer H.
   Watanabe. 0.35-m f/1.9 Schmidt-Cassegrain + CMO.
(T12) Mauna Kea-UH/Tholen NEO Follow-Up (2.24-m)  (N19.822991 W155.469434)
   US/Hawaii.  Observer R. Weryk. 2.24-m f/10.1 University of Hawaii
   reflector.
(U68) JPL SynTrack Robotic Telescope, Auberry  (N37.070387 W119.412990)
   US/California.  Observers N. Saini, C. Zhai, R. Trahan, M. Zhan, M. Shao.
   0.28-m f/2.2 Schmidt + CCD.
(U74) JPL SynTrack Robotic Telescope 2, Auberry  (N37.070341 W119.412800)
   US/California.  Observers N. Saini, C. Zhai, R. Trahan, M. Zhan, M. Shao.
   0.36-m f/2.2 Schmidt.

Orbital elements:  ST26G96
   Perihelion 2026 Sep 8.927345 +/- 0.00804 TT = 22:15:22.6 (JD 2461292.427345)
Epoch 2026 Jul 25.0 TT = JDT 2461246.5   Earth MOID: 0.0074   Ve: 0.0595
M 341.813621415 +/- 0.019           Ma: 0.0544                   AutoNEOCP
n   0.395981488 +/- 0.000358        Peri.  242.866168 +/- 0.0011
a   1.836620636 +/- 0.00111         Node   126.806703 +/- 0.0019
e   0.57308576 +/- 0.000297         Incl.    4.735457 +/- 0.0023
P   2.489/909.116d         H 26.97  G  0.15   U  7.4
q 0.784079488 +/- 7.34e-5    Q 2.889161783 +/- 0.00229    (J2000 ecliptic)
From 16 observations 2026 July 24 (16.4 hr); mean residual 0".57
Residuals in arcseconds: 
260724 U68  .01-  .49-    260724 T12  .02-  .03+    260724 J95  .10+  .45-    
260724 U68  .63+  .84-    260724 T12  .01-  .01-    260724 J95  .03-  .15+    
260724 U74  .12+  .38-    260724 T12  .02-  .03+    260724 J95  .30+  .12+    
260724 U74  .42-  .68+    260724 Q06  1.0-  .79-    260724 J95  .35-  .19+    
260724 U74  .66+  .71-    260724 Q06  .88+  .93-    
260724 U74  .16-  1.6+    260724 Q06  .32+  .90+    

Ephemerides (geocentric):
Date (UTC) HH   RA             Dec           delta  r     elong  mag " sig PA
---- --------  ------------   ------------  ------ ------ -----  --- --------
2026 07 24 23  17 08 36.872   +61 10 22.88  .00760 1.0159  90.8 19.5 .117 111
2026 07 25 00  16 56 12.758   +63 20 59.67  .00753 1.0155  88.2 19.6 .106  99
2026 07 25 01  16 41 32.733   +65 29 04.86  .00747 1.0152  85.6 19.7 .096  83
2026 07 25 02  16 24 05.387   +67 32 29.75  .00743 1.0148  83.0 19.8 .091  63
2026 07 25 03  16 03 14.268   +69 28 32.74  .00741 1.0145  80.3 19.9 .095  39
2026 07 25 04  15 38 21.294   +71 13 53.85  .00740 1.0142  77.6 20.1 .108  15
2026 07 25 05  15 08 55.589   +72 44 34.04  .00741 1.0138  75.0 20.2 .131 174
2026 07 25 06  14 34 50.054   +73 56 07.68  .00743 1.0135  72.3 20.4 .161 156
2026 07 25 07  13 56 43.270   +74 44 19.16  .00748 1.0131  69.7 20.5 .195 139
2026 07 25 08  13 16 13.248   +75 06 05.79  .00753 1.0128  67.1 20.7 .233 124
2026 07 25 09  12 35 42.885   +75 00 43.71  .00761 1.0124  64.5 20.9 .274 110
2026 07 25 10  11 57 35.191   +74 30 12.32  .00770 1.0121  62.0 21.1 .315  98
2026 07 25 11  11 23 28.442   +73 38 35.28  .00780 1.0118  59.6 21?? .357  88
2026 07 25 12  10 54 01.473   +72 30 46.72  .00792 1.0114  57.3 21?? .399  79
2026 07 25 13  10 29 07.343   +71 11 28.17  .00805 1.0111  55.0 21?? .441  71
2026 07 25 14  10 08 15.236   +69 44 36.27  .00820 1.0107  52.8 22?? .481  65
2026 07 25 15  09 50 47.083   +68 13 15.67  .00836 1.0104  50.7 22?? .520  60
2026 07 25 16  09 36 06.410   +66 39 44.43  .00852 1.0100  48.7 22?? .558  56
2026 07 25 17  09 23 41.783   +65 05 43.27  .00871 1.0097  46.7 22?? .594  52
2026 07 25 18  09 13 07.435   +63 32 24.46  .00890 1.0094  44.9 22?? .629  49
2026 07 25 19  09 04 02.741   +62 00 39.01  .00910 1.0090  43.1 23?? .661  47
2026 07 25 20  08 56 11.344   +60 31 02.29  .00931 1.0087  41.4 23?? .692  44
2026 07 25 21  08 49 20.295   +59 03 58.10  .00952 1.0083  39.9 23?? .720  42
2026 07 25 22  08 43 19.313   +57 39 41.70  .00975 1.0080  38.3 24?? .747  41
2026 07 25 23  08 38 00.195   +56 18 22.05  .00998 1.0077  36.9 24?? .773  39
2026 07 26 00  08 33 16.347   +55 00 03.48  .01022 1.0073  35.5 24?? .796  38
2026 07 26 01  08 29 02.435   +53 44 46.90  .01047 1.0070  34.2 24?? .818  37
2026 07 26 02  08 25 14.109   +52 32 30.74  .01072 1.0066  33.0 25?? .839  36
2026 07 26 03  08 21 47.796   +51 23 11.63  .01098 1.0063  31.9 25?? .858  35
2026 07 26 04  08 18 40.540   +50 16 44.92  .01124 1.0060  30.8 25?? .875  34
2026 07 26 05  08 15 49.878   +49 13 05.13  .01151 1.0056  29.7 25?? .892  33
2026 07 26 06  08 13 13.745   +48 12 06.20  .01178 1.0053  28.7 26?? .907  33
2026 07 26 07  08 10 50.396   +47 13 41.71  .01206 1.0049  27.8 26?? .921  32
2026 07 26 08  08 08 38.353   +46 17 45.12  .01234 1.0046  26.9 26?? .934  32
2026 07 26 09  08 06 36.349   +45 24 09.82  .01262 1.0043  26.1 26?? .947  31
2026 07 26 10  08 04 43.300   +44 32 49.29  .01291 1.0039  25.3 26?? .958  31
2026 07 26 11  08 02 58.269   +43 43 37.12  .01320 1.0036  24.6 27?? .969  30
2026 07 26 12  08 01 20.443   +42 56 27.08  .01349 1.0033  23.9 27?? .978  30
2026 07 26 13  07 59 49.115   +42 11 13.18  .01379 1.0029  23.2 27?? .988  30
2026 07 26 14  07 58 23.666   +41 27 49.62  .01409 1.0026  22.6 27?? 1.00  29
2026 07 26 15  07 57 03.553   +40 46 10.89  .01439 1.0022  22.0 28?? 1.00  29
2026 07 26 16  07 55 48.297   +40 06 11.71  .01469 1.0019  21.5 28?? 1.01  29
2026 07 26 17  07 54 37.473   +39 27 47.07  .01500 1.0016  21.0 28?? 1.02  28
2026 07 26 18  07 53 30.704   +38 50 52.21  .01530 1.0012  20.5 28?? 1.03  28
2026 07 26 19  07 52 27.657   +38 15 22.60  .01561 1.0009  20.0 28?? 1.03  28
2026 07 26 20  07 51 28.030   +37 41 13.99  .01593 1.0005  19.6 29?? 1.04  28
2026 07 26 21  07 50 31.556   +37 08 22.32  .01624 1.0002  19.2 29?? 1.04  28
2026 07 26 22  07 49 37.993   +36 36 43.77  .01655 0.9999  18.8 29?? 1.05  27